sat.trackr.live / text

‹ back to catalog

KUIPER-00186

NORAD 67140 · 2025-301H

PAYLOAD ACTIVE UNKNOWN

§ Identity

Operator
Country
US
Launch date
2025-12-16
Launch site
AFETR
Launch vehicle
Mass (kg)
RCS (m²)

External: N2YO · Heavens-Above · Gunter

§ Orbital elements

Epoch: 2026-09-20T19:21:43.467840Z

Period
97.30 min
Inclination
51.9041°
Eccentricity
0.0000356
Mean motion
14.79931620 rev/d
Perigee alt
629.3 km
Apogee alt
629.8 km
Semi-major
7,007.7 km
B*
2.3393e-4
RAAN
295.3448°
Arg perigee
65.0133°
Mean anomaly
295.0866°
Rev number
4,245

§ Raw data

KUIPER-001861 67140U 25301H   26263.80675310  .00001563  00000+0  23393-3 0  99952 67140  51.9041 295.3448 0000356  65.0133 295.0866 14.79931620 42450

JSON: /api/v1/satellites/67140 · /tle

For live sub-satellite position, see the globe view (requires WebGL).

§ Visibility from observer

Set your observer location to see the next 7 days of passes ≥ 10°. The values pass through the URL so the page stays shareable.

No JS? Fill the form by hand. The geolocation button needs JavaScript.